N2NET Weather Reports


Display with metric or nautical units.
time (UTC)temp
F
wind
direction
speed
MPH
gust
MPH
rain 1hr
in
rain 24hr
in
rain mn
in
humidity
%
barometer
mb
20260831120109 58 0 0.0 0.0 0.00 0.00 0.00 100 1021.3
20260831114607 57 0 0.0 1.0 0.00 0.00 0.00 100 1021.2
20260831113111 57 0 0.0 0.0 0.00 0.00 0.00 100 1021.1
20260831111603 57 0 0.0 0.0 0.00 0.00 0.00 100 1021.0
20260831110108 56 0 0.0 0.0 0.00 0.00 0.00 100 1020.9
20260831104608 56 0 0.0 0.0 0.00 0.00 0.00 100 1020.7
20260831103058 56 0 0.0 1.0 0.00 0.00 0.00 100 1020.5
20260831101608 56 0 0.0 0.0 0.00 0.00 0.00 100 1020.5
20260831100127 57 0 1.0 2.0 0.00 0.00 0.00 100 1020.5
20260831094606 57 0 0.0 2.0 0.00 0.00 0.00 100 1020.3
20260831093103 57 316 1.0 4.0 0.00 0.00 0.00 100 1020.1
20260831091606 57 0 0.0 0.0 0.00 0.00 0.00 100 1020.2
20260831090104 57 0 0.0 0.0 0.00 0.00 0.00 100 1020.4
20260831084636 57 210 0.0 1.0 0.00 0.00 0.00 100 1020.5
20260831083101 57 0 0.0 0.0 0.00 0.00 0.00 100 1020.4
20260831081558 57 0 0.0 0.0 0.00 0.00 0.00 100 1020.4
20260831080128 58 0 0.0 0.0 0.00 0.00 0.00 100 1020.4
20260831074607 59 0 0.0 0.0 0.00 0.00 0.00 100 1020.2
20260831073111 59 0 0.0 0.0 0.00 0.00 0.00 100 1020.0
20260831071614 60 0 0.0 0.0 0.00 0.00 0.00 100 1019.9
20260831070104 61 0 1.0 2.0 0.00 0.00 0.00 100 1020.0
20260831064604 61 0 0.0 1.0 0.00 0.00 0.00 100 1019.9
20260831063107 62 0 0.0 0.0 0.00 0.00 0.00 100 1019.7
20260831061606 63 0 0.0 0.0 0.00 0.00 0.00 100 1020.0
20260831060109 63 0 0.0 0.0 0.00 0.00 0.00 24 1019.9
20260831054557 64 0 0.0 2.0 0.00 0.00 0.00 53 1019.7
20260831053124 66 211 0.0 7.0 0.00 0.00 0.00 67 1019.7
20260831051602 66 271 2.0 7.0 0.00 0.00 0.00 64 1019.8
20260831050127 67 330 0.0 11.0 0.00 0.00 0.00 68 1019.9
20260831044605 66 0 0.0 2.0 0.00 0.00 0.00 62 1020.0
20260831043104 66 145 0.0 4.0 0.00 0.00 0.00 65 1019.9
20260831041617 68 217 1.0 4.0 0.00 0.00 0.00 69 1019.9
20260831040059 67 303 2.0 8.0 0.00 0.00 0.00 69 1019.9
20260831034600 66 212 0.0 4.0 0.00 0.00 0.00 68 1019.8
20260831033110 67 115 0.0 3.0 0.00 0.00 0.00 69 1019.7
20260831031600 67 208 0.0 9.0 0.00 0.00 0.00 69 1019.6
20260831030111 68 0 2.0 7.0 0.00 0.00 0.00 70 1019.6
20260831024606 68 233 1.0 6.0 0.00 0.00 0.00 70 1019.8
20260831023100 68 0 1.0 8.0 0.00 0.00 0.00 70 1020.0
20260831021558 68 309 1.0 11.0 0.00 0.00 0.00 70 1019.9
20260831020104 68 310 1.0 16.0 0.00 0.00 0.00 70 1019.9
20260831014606 69 320 2.0 11.0 0.00 0.00 0.00 70 1019.8
20260831013106 69 295 5.0 13.0 0.00 0.00 0.00 69 1019.6
20260831011604 69 254 2.0 13.0 0.00 0.00 0.00 69 1019.5
20260831010113 69 281 4.0 11.0 0.00 0.00 0.00 69 1019.2
20260831004608 69 287 3.0 11.0 0.00 0.00 0.00 69 1019.1
20260831003111 69 0 1.0 5.0 0.00 0.00 0.00 69 1018.7
20260831001603 69 307 2.0 9.0 0.00 0.00 0.00 68 1018.6
20260831000103 69 283 2.0 11.0 0.00 0.00 0.00 68 1018.3
20260830234607 69 304 2.0 6.0 0.00 0.00 0.00 68 1018.3
20260830233106 69 310 1.0 5.0 0.00 0.00 0.00 68 1018.4
20260830231615 69 304 1.0 6.0 0.00 0.00 0.00 68 1018.4
20260830230105 70 317 3.0 21.0 0.00 0.00 0.00 67 1018.6
20260830224607 71 278 1.0 6.0 0.00 0.00 0.00 64 1018.3
20260830223107 70 309 2.0 4.0 0.00 0.00 0.00 100 1018.3
20260830221602 70 0 0.0 0.0 0.00 0.00 0.00 100 1018.3
20260830220103 71 0 0.0 0.0 0.00 0.00 0.00 100 1018.1
20260830214606 71 0 0.0 0.0 0.00 0.00 0.00 100 1018.0
20260830213103 72 0 0.0 0.0 0.00 0.00 0.00 5 1018.0
20260830211604 72 0 0.0 0.0 0.00 0.00 0.00 31 1017.9
20260830210136 72 143 0.0 1.0 0.00 0.00 0.00 39 1018.0
20260830204611 72 143 0.0 0.0 0.00 0.00 0.00 56 1018.1
20260830203104 73 144 0.0 1.0 0.00 0.00 0.00 67 1018.2
20260830201605 73 135 1.0 3.0 0.00 0.00 0.00 68 1018.2
20260830200112 74 0 0.0 2.0 0.00 0.00 0.00 69 1018.3
20260830194653 74 0 0.0 3.0 0.00 0.00 0.00 69 1018.3
20260830193106 74 0 1.0 2.0 0.00 0.00 0.00 70 1018.3
20260830191612 74 0 0.0 0.0 0.00 0.00 0.00 69 1018.5
20260830190105 74 0 0.0 1.0 0.00 0.00 0.00 71 1018.5
20260830184607 75 0 0.0 3.0 0.00 0.00 0.00 70 1018.6
20260830183118 75 316 0.0 2.0 0.00 0.00 0.00 69 1018.7
20260830181607 76 245 1.0 5.0 0.00 0.00 0.00 69 1019.0
20260830180109 75 296 0.0 4.0 0.00 0.00 0.00 69 1019.0
20260830174559 76 313 2.0 6.0 0.00 0.00 0.00 68 1019.4
20260830173130 77 210 2.0 6.0 0.00 0.00 0.00 66 1019.4
20260830171604 76 0 1.0 4.0 0.00 0.00 0.00 65 1019.6
20260830170111 76 117 0.0 1.0 0.00 0.00 0.00 67 1019.7
20260830164603 74 0 0.0 2.0 0.00 0.00 0.00 66 1019.8
20260830163102 74 0 0.0 4.0 0.00 0.00 0.00 66 1020.0
20260830161627 74 176 2.0 5.0 0.00 0.00 0.00 67 1020.2
20260830160106 74 217 0.0 3.0 0.00 0.00 0.00 65 1020.4
20260830154606 74 214 0.0 2.0 0.00 0.00 0.00 64 1020.4
20260830153105 75 235 2.0 6.0 0.00 0.00 0.00 59 1020.7
20260830151602 74 127 1.0 5.0 0.00 0.00 0.00 60 1020.7
20260830150121 73 0 0.0 2.0 0.00 0.00 0.00 63 1020.9
20260830144605 72 215 0.0 6.0 0.00 0.00 0.00 62 1020.9
20260830143105 72 338 0.0 7.0 0.00 0.00 0.00 64 1020.9
20260830141602 73 255 1.0 3.0 0.00 0.00 0.00 62 1020.9
20260830140105 75 221 1.0 5.0 0.00 0.00 0.00 58 1020.9
20260830134602 75 221 1.0 4.0 0.00 0.00 0.00 61 1021.0
20260830133102 73 209 0.0 1.0 0.00 0.00 0.00 65 1021.1
20260830131614 71 0 0.0 0.0 0.00 0.00 0.00 65 1021.4
20260830124601 69 0 0.0 0.0 0.00 0.00 0.00 58 1021.7
20260830123104 66 0 0.0 0.0 0.00 0.00 0.00 8 1021.8
20260830121605 64 0 0.0 0.0 0.00 0.00 0.00 100 1022.0